Regional Weather Roundup
Issued by NWS

Home | Current Version | Previous Version | Text Only | Print | Product List | Glossary Off
Versions: 1 2 3 4 5 6 7 8 9 10 11 12 13 14 15 16 17 18 19 20 21 22 23 24 25 26 27 28 29 30 31 32 33 34 35 36 37 38 39 40 41 42 43 44 45 46 47 48 49 50

000
ASUS43 KFSD 270602
RWRSD

WEATHER ROUNDUP FOR SOUTH DAKOTA
NATIONAL WEATHER SERVICE SIOUX FALLS SD
100 AM CDT MON APR 27 2015

NOTE: "FAIR" INDICATES FEW OR NO CLOUDS BELOW 12,000 FEET WITH NO
SIGNIFICANT WEATHER AND/OR OBSTRUCTIONS TO VISIBILITY.


SDZ001>005-009-010-012>017-270700-
NORTHWEST AND NORTH CENTRAL SOUTH DAKOTA

CITY           SKY/WX    TMP DP  RH WIND       PRES   REMARKS
BUFFALO          N/A     44  43  96 N13       30.11S
FAITH            N/A     50  36  58 SE9       30.14R
MOBRIDGE       PTCLDY    45  34  65 CALM      30.12R
$$

SDZ012>016-024>037-041>051-057-063-072>074-270700-
SOUTHWEST AND SOUTH CENTRAL SOUTH DAKOTA

CITY           SKY/WX    TMP DP  RH WIND       PRES   REMARKS
RAPID CTY ARPT MOCLDY    44  42  93 N5        30.15R
PIERRE         MOCLDY    47  33  58 CALM      30.14R
CUSTER         CLOUDY    39  37  92 NE3       30.16S FOG
ELLSWORTH AFB  CLOUDY    46  45  95 NW3       30.15R
PHILIP         CLOUDY    50  39  66 CALM      30.15R
PINE RIDGE     CLOUDY    44  39  82 E3        30.15R
WINNER         FAIR      46  28  49 SE5       30.14S
$$

SDZ004>011-016>023-039-040-270700-
NORTHEAST SOUTH DAKOTA

CITY           SKY/WX    TMP DP  RH WIND       PRES   REMARKS
ABERDEEN       PTCLDY    40  29  64 SE7       30.17R
WATERTOWN      CLEAR     47  22  37 E3        30.17R
BROOKINGS      CLEAR     41  28  60 NE3       30.18R
SISSETON         N/A     39  30  70 SW3       30.16R
$$

SDZ017-020-022-023-036>040-048>070-270700-
SOUTHEAST SOUTH DAKOTA

CITY           SKY/WX    TMP DP  RH WIND       PRES   REMARKS
SIOUX FALLS    CLEAR     42  28  57 NE5       30.16R
HURON          PTCLDY    45  31  58 E8        30.16R
MITCHELL       PTCLDY    46  35  65 E9        30.16R
YANKTON        CLEAR     48  28  46 NE9       30.13S
$$

ABBREVIATIONS USED IN REMARKS
   TC - TEMPERATURE IN CELSIUS
  WCI - WIND CHILL INDEX
   HX - HEAT INDEX
  VSB - VISIBILITY




USA.gov is the U.S. government's official web portal to all federal, state and local government web resources and services.